| time (UTC) | temp F | wind direction | speed MPH | gust MPH | rain 1hr in | rain 24hr in | rain mn in | humidity % | barometer mb |
| 20260509032518 | 72 | 43 | 0.0 | 2.0 | 0.00 | 0.68 | 0.68 | 76 | 1011.0 |
| 20260509032023 | 72 | 0 | 0.0 | 4.0 | 0.00 | 0.68 | 0.68 | 77 | 1010.6 |
| 20260509031537 | 72 | 0 | 0.0 | 4.0 | 0.00 | 0.68 | 0.68 | 77 | 1010.4 |
| 20260509031020 | 72 | 150 | 0.0 | 3.0 | 0.00 | 0.68 | 0.68 | 76 | 1010.4 |
| 20260509030521 | 72 | 0 | 0.0 | 3.0 | 0.00 | 0.68 | 0.68 | 76 | 1010.3 |
| 20260509030035 | 72 | 0 | 0.0 | 2.0 | 0.00 | 0.68 | 0.68 | 76 | 1010.4 |
| 20260509025521 | 72 | 0 | 1.0 | 2.0 | 0.00 | 0.68 | 0.68 | 76 | 1010.5 |
| 20260509025017 | 72 | 0 | 0.0 | 2.0 | 0.00 | 0.68 | 0.68 | 76 | 1010.3 |
| 20260509024538 | 72 | 0 | 1.0 | 2.0 | 0.00 | 0.68 | 0.68 | 76 | 1010.0 |
| 20260509024018 | 72 | 57 | 0.0 | 2.0 | 0.00 | 0.68 | 0.68 | 76 | 1010.0 |
| 20260509023518 | 72 | 32 | 0.0 | 4.0 | 0.00 | 0.68 | 0.68 | 76 | 1009.9 |
| 20260509023039 | 72 | 0 | 1.0 | 7.0 | 0.00 | 0.68 | 0.68 | 76 | 1009.5 |
| 20260509022522 | 72 | 143 | 1.0 | 7.0 | 0.00 | 0.68 | 0.68 | 76 | 1009.2 |
| 20260509022018 | 72 | 190 | 1.0 | 6.0 | 0.00 | 0.68 | 0.68 | 76 | 1009.0 |
| 20260509021538 | 72 | 182 | 1.0 | 6.0 | 0.00 | 0.68 | 0.68 | 76 | 1009.0 |
| 20260509021021 | 72 | 125 | 1.0 | 5.0 | 0.00 | 0.68 | 0.68 | 75 | 1009.1 |
| 20260509020521 | 72 | 165 | 1.0 | 5.0 | 0.00 | 0.68 | 0.68 | 75 | 1009.1 |
| 20260509020039 | 72 | 156 | 0.0 | 5.0 | 0.00 | 0.68 | 0.68 | 74 | 1009.2 |
| 20260509015518 | 72 | 181 | 1.0 | 5.0 | 0.00 | 0.68 | 0.68 | 74 | 1009.1 |
| 20260509015020 | 73 | 0 | 1.0 | 9.0 | 0.00 | 0.68 | 0.68 | 74 | 1009.0 |
| 20260509014535 | 73 | 142 | 1.0 | 9.0 | 0.00 | 0.68 | 0.68 | 73 | 1008.9 |
| 20260509014030 | 73 | 182 | 1.0 | 5.0 | 0.00 | 0.68 | 0.68 | 73 | 1008.9 |
| 20260509013521 | 73 | 159 | 0.0 | 4.0 | 0.00 | 0.68 | 0.68 | 73 | 1008.8 |
| 20260509013034 | 73 | 178 | 1.0 | 4.0 | 0.00 | 0.68 | 0.68 | 72 | 1008.9 |
| 20260509012518 | 73 | 192 | 1.0 | 3.0 | 0.00 | 0.68 | 0.68 | 73 | 1008.9 |
| 20260509012018 | 73 | 192 | 0.0 | 3.0 | 0.00 | 0.68 | 0.68 | 72 | 1009.0 |
| 20260509011538 | 73 | 142 | 0.0 | 2.0 | 0.00 | 0.68 | 0.68 | 72 | 1009.0 |
| 20260509011017 | 73 | 178 | 0.0 | 3.0 | 0.00 | 0.68 | 0.68 | 72 | 1008.9 |
| 20260509010520 | 73 | 159 | 0.0 | 3.0 | 0.00 | 0.68 | 0.68 | 71 | 1008.9 |
| 20260509010038 | 73 | 167 | 0.0 | 4.0 | 0.00 | 0.68 | 0.68 | 71 | 1008.9 |
| 20260509005520 | 73 | 0 | 0.0 | 4.0 | 0.00 | 0.68 | 0.68 | 71 | 1008.9 |
| 20260509005017 | 74 | 163 | 1.0 | 4.0 | 0.00 | 0.68 | 0.68 | 70 | 1008.7 |
| 20260509004540 | 74 | 150 | 1.0 | 4.0 | 0.00 | 0.68 | 0.68 | 70 | 1008.6 |
| 20260509004018 | 74 | 175 | 1.0 | 6.0 | 0.00 | 0.68 | 0.68 | 70 | 1008.4 |
| 20260509003524 | 74 | 186 | 1.0 | 8.0 | 0.00 | 0.68 | 0.68 | 69 | 1008.3 |
| 20260509003039 | 74 | 128 | 2.0 | 8.0 | 0.00 | 0.68 | 0.68 | 69 | 1008.3 |
| 20260509002519 | 75 | 158 | 1.0 | 5.0 | 0.00 | 0.68 | 0.68 | 69 | 1008.3 |
| 20260509002022 | 75 | 183 | 1.0 | 7.0 | 0.00 | 0.68 | 0.68 | 68 | 1008.3 |
| 20260509001538 | 75 | 213 | 1.0 | 11.0 | 0.00 | 0.68 | 0.68 | 68 | 1008.3 |
| 20260509001022 | 75 | 146 | 2.0 | 11.0 | 0.00 | 0.68 | 0.68 | 68 | 1008.3 |
| 20260509000522 | 76 | 152 | 1.0 | 7.0 | 0.00 | 0.68 | 0.68 | 67 | 1008.3 |
| 20260509000038 | 76 | 167 | 1.0 | 6.0 | 0.00 | 0.68 | 0.68 | 67 | 1008.4 |
| 20260508235526 | 76 | 94 | 1.0 | 6.0 | 0.00 | 0.68 | 0.68 | 66 | 1008.3 |
| 20260508235023 | 76 | 157 | 1.0 | 5.0 | 0.00 | 0.68 | 0.68 | 66 | 1008.6 |
| 20260508234539 | 76 | 0 | 1.0 | 6.0 | 0.00 | 0.68 | 0.68 | 65 | 1008.6 |
| 20260508234022 | 76 | 167 | 2.0 | 7.0 | 0.00 | 0.68 | 0.68 | 65 | 1008.7 |
| 20260508233522 | 77 | 171 | 1.0 | 9.0 | 0.00 | 0.68 | 0.68 | 65 | 1008.7 |
| 20260508233037 | 77 | 177 | 1.0 | 9.0 | 0.00 | 0.68 | 0.68 | 65 | 1008.7 |
| 20260508232522 | 77 | 166 | 1.0 | 5.0 | 0.00 | 0.68 | 0.68 | 65 | 1008.6 |
| 20260508232022 | 77 | 198 | 1.0 | 8.0 | 0.00 | 0.68 | 0.68 | 65 | 1008.8 |
| 20260508231552 | 78 | 169 | 1.0 | 8.0 | 0.00 | 0.68 | 0.68 | 64 | 1008.7 |
| 20260508231022 | 78 | 195 | 2.0 | 5.0 | 0.00 | 0.68 | 0.68 | 64 | 1008.8 |
| 20260508230521 | 78 | 194 | 1.0 | 5.0 | 0.00 | 0.68 | 0.68 | 64 | 1008.8 |
| 20260508230051 | 78 | 171 | 0.0 | 5.0 | 0.00 | 0.68 | 0.68 | 65 | 1008.8 |
| 20260508225525 | 78 | 0 | 0.0 | 5.0 | 0.00 | 0.68 | 0.68 | 65 | 1008.9 |
| 20260508225023 | 78 | 232 | 0.0 | 6.0 | 0.00 | 0.68 | 0.68 | 64 | 1008.9 |
| 20260508224538 | 78 | 0 | 1.0 | 6.0 | 0.00 | 0.68 | 0.68 | 64 | 1008.8 |
| 20260508224022 | 78 | 0 | 1.0 | 4.0 | 0.00 | 0.68 | 0.68 | 64 | 1008.8 |
| 20260508223522 | 79 | 0 | 0.0 | 6.0 | 0.00 | 0.68 | 0.68 | 63 | 1008.9 |
| 20260508223043 | 79 | 196 | 1.0 | 6.0 | 0.00 | 0.68 | 0.68 | 63 | 1008.9 |
| 20260508222522 | 80 | 0 | 1.0 | 5.0 | 0.00 | 0.68 | 0.68 | 62 | 1008.9 |
| 20260508222022 | 80 | 0 | 0.0 | 4.0 | 0.00 | 0.68 | 0.68 | 62 | 1008.8 |
| 20260508221538 | 80 | 167 | 0.0 | 4.0 | 0.00 | 0.68 | 0.68 | 62 | 1008.7 |
| 20260508221022 | 79 | 186 | 0.0 | 8.0 | 0.00 | 0.68 | 0.68 | 62 | 1008.7 |
| 20260508220521 | 80 | 201 | 2.0 | 8.0 | 0.00 | 0.68 | 0.68 | 60 | 1008.6 |
| 20260508220043 | 80 | 0 | 1.0 | 5.0 | 0.00 | 0.68 | 0.68 | 62 | 1008.6 |
| 20260508215526 | 79 | 196 | 1.0 | 7.0 | 0.00 | 0.68 | 0.68 | 62 | 1008.7 |
| 20260508215022 | 79 | 215 | 2.0 | 7.0 | 0.00 | 0.68 | 0.68 | 61 | 1008.8 |
| 20260508214554 | 80 | 192 | 1.0 | 7.0 | 0.00 | 0.68 | 0.68 | 60 | 1008.7 |
| 20260508214021 | 80 | 198 | 2.0 | 8.0 | 0.00 | 0.68 | 0.68 | 61 | 1008.6 |
| 20260508213521 | 79 | 188 | 2.0 | 8.0 | 0.00 | 0.68 | 0.68 | 61 | 1008.6 |
| 20260508213046 | 79 | 215 | 1.0 | 6.0 | 0.00 | 0.68 | 0.68 | 61 | 1008.6 |
| 20260508212522 | 79 | 223 | 2.0 | 6.0 | 0.00 | 0.68 | 0.68 | 62 | 1008.7 |
| 20260508212021 | 79 | 155 | 1.0 | 8.0 | 0.00 | 0.68 | 0.68 | 60 | 1008.9 |
| 20260508211542 | 79 | 154 | 2.0 | 8.0 | 0.00 | 0.68 | 0.68 | 60 | 1008.9 |
| 20260508211022 | 79 | 128 | 1.0 | 7.0 | 0.00 | 0.68 | 0.68 | 61 | 1009.2 |
| 20260508210522 | 79 | 215 | 1.0 | 7.0 | 0.00 | 0.68 | 0.68 | 60 | 1009.4 |
| 20260508210041 | 78 | 194 | 2.0 | 5.0 | 0.00 | 0.68 | 0.68 | 62 | 1009.6 |
| 20260508205521 | 77 | 167 | 1.0 | 5.0 | 0.00 | 0.68 | 0.68 | 64 | 1009.9 |
| 20260508205021 | 77 | 246 | 1.0 | 5.0 | 0.00 | 0.68 | 0.68 | 64 | 1009.9 |
| 20260508204538 | 77 | 0 | 0.0 | 3.0 | 0.00 | 0.68 | 0.68 | 64 | 1010.1 |
| 20260508204021 | 77 | 203 | 1.0 | 3.0 | 0.00 | 0.68 | 0.68 | 62 | 1010.4 |
| 20260508203521 | 78 | 0 | 1.0 | 3.0 | 0.00 | 0.68 | 0.68 | 63 | 1010.7 |
| 20260508203037 | 78 | 198 | 0.0 | 3.0 | 0.00 | 0.68 | 0.68 | 63 | 1010.7 |
| 20260508202520 | 77 | 226 | 0.0 | 3.0 | 0.00 | 0.68 | 0.68 | 63 | 1010.6 |
| 20260508202022 | 77 | 352 | 1.0 | 3.0 | 0.00 | 0.68 | 0.68 | 62 | 1010.7 |
| 20260508201541 | 78 | 219 | 0.0 | 3.0 | 0.00 | 0.68 | 0.68 | 62 | 1010.7 |
| 20260508201022 | 79 | 236 | 1.0 | 3.0 | 0.00 | 0.68 | 0.68 | 60 | 1010.7 |
| 20260508200522 | 79 | 219 | 1.0 | 5.0 | 0.00 | 0.68 | 0.68 | 60 | 1010.7 |
| 20260508200040 | 80 | 88 | 2.0 | 5.0 | 0.00 | 0.68 | 0.68 | 59 | 1010.7 |
| 20260508195521 | 80 | 132 | 0.0 | 4.0 | 0.00 | 0.68 | 0.68 | 59 | 1010.7 |
| 20260508195021 | 80 | 0 | 1.0 | 4.0 | 0.00 | 0.68 | 0.68 | 58 | 1010.8 |
| 20260508194538 | 80 | 0 | 1.0 | 4.0 | 0.00 | 0.68 | 0.68 | 59 | 1010.8 |
| 20260508194021 | 80 | 147 | 1.0 | 3.0 | 0.00 | 0.68 | 0.68 | 57 | 1010.7 |
| 20260508193521 | 80 | 89 | 1.0 | 3.0 | 0.00 | 0.68 | 0.68 | 59 | 1010.8 |
| 20260508193045 | 80 | 166 | 0.0 | 4.0 | 0.00 | 0.68 | 0.68 | 57 | 1010.9 |
| 20260508192521 | 80 | 196 | 0.0 | 7.0 | 0.00 | 0.68 | 0.68 | 56 | 1010.9 |
| 20260508192022 | 80 | 182 | 2.0 | 7.0 | 0.00 | 0.68 | 0.68 | 55 | 1010.9 |
| 20260508191540 | 80 | 164 | 1.0 | 6.0 | 0.00 | 0.68 | 0.68 | 56 | 1011.0 |
| 20260508191022 | 80 | 156 | 1.0 | 6.0 | 0.00 | 0.68 | 0.68 | 55 | 1011.0 |
| 20260508190525 | 79 | 159 | 1.0 | 6.0 | 0.00 | 0.68 | 0.68 | 59 | 1011.0 |
| 20260508190042 | 79 | 119 | 2.0 | 5.0 | 0.00 | 0.68 | 0.68 | 58 | 1011.0 |
| 20260508185523 | 79 | 143 | 2.0 | 7.0 | 0.00 | 0.68 | 0.68 | 58 | 1011.0 |
| 20260508185022 | 80 | 155 | 1.0 | 7.0 | 0.00 | 0.68 | 0.68 | 56 | 1011.1 |
| 20260508184539 | 79 | 153 | 1.0 | 7.0 | 0.00 | 0.68 | 0.68 | 59 | 1011.0 |
| 20260508184022 | 78 | 186 | 0.0 | 5.0 | 0.00 | 0.68 | 0.68 | 59 | 1011.1 |
| 20260508183521 | 77 | 113 | 1.0 | 6.0 | 0.00 | 0.68 | 0.68 | 61 | 1011.2 |
| 20260508183039 | 77 | 236 | 2.0 | 6.0 | 0.00 | 0.68 | 0.68 | 57 | 1011.4 |
| 20260508182523 | 78 | 0 | 1.0 | 6.0 | 0.00 | 0.68 | 0.68 | 59 | 1011.4 |
| 20260508182021 | 77 | 150 | 1.0 | 7.0 | 0.00 | 0.68 | 0.68 | 60 | 1011.4 |
| 20260508181540 | 76 | 142 | 1.0 | 7.0 | 0.00 | 0.68 | 0.68 | 60 | 1011.5 |
| 20260508181022 | 77 | 0 | 1.0 | 4.0 | 0.00 | 0.68 | 0.68 | 58 | 1011.6 |
| 20260508180522 | 77 | 171 | 1.0 | 4.0 | 0.00 | 0.68 | 0.68 | 59 | 1011.8 |
| 20260508180038 | 77 | 171 | 1.0 | 10.0 | 0.00 | 0.68 | 0.68 | 60 | 1011.8 |
| 20260508175522 | 76 | 92 | 2.0 | 10.0 | 0.00 | 0.68 | 0.68 | 58 | 1011.9 |
| 20260508175022 | 78 | 160 | 2.0 | 7.0 | 0.00 | 0.68 | 0.68 | 58 | 1012.0 |
| 20260508174539 | 77 | 0 | 0.0 | 6.0 | 0.00 | 0.68 | 0.68 | 60 | 1012.0 |
| 20260508174022 | 76 | 108 | 1.0 | 6.0 | 0.00 | 0.68 | 0.68 | 61 | 1012.0 |
| 20260508173520 | 76 | 105 | 1.0 | 6.0 | 0.00 | 0.68 | 0.68 | 61 | 1012.2 |
| 20260508173039 | 75 | 124 | 0.0 | 5.0 | 0.00 | 0.68 | 0.68 | 62 | 1012.2 |
| 20260508172520 | 74 | 144 | 1.0 | 4.0 | 0.00 | 0.68 | 0.68 | 60 | 1012.2 |
| 20260508172022 | 75 | 145 | 0.0 | 2.0 | 0.00 | 0.68 | 0.68 | 62 | 1012.5 |
| 20260508171539 | 74 | 0 | 0.0 | 6.0 | 0.00 | 0.68 | 0.68 | 61 | 1012.7 |
| 20260508171025 | 75 | 156 | 1.0 | 8.0 | 0.00 | 0.68 | 0.68 | 61 | 1012.8 |
| 20260508170521 | 75 | 0 | 1.0 | 8.0 | 0.00 | 0.68 | 0.68 | 60 | 1013.1 |
| 20260508170040 | 75 | 142 | 2.0 | 8.0 | 0.00 | 0.68 | 0.68 | 61 | 1013.3 |
| 20260508165519 | 74 | 166 | 1.0 | 6.0 | 0.00 | 0.68 | 0.68 | 61 | 1013.4 |
| 20260508165021 | 74 | 0 | 1.0 | 11.0 | 0.00 | 0.68 | 0.68 | 63 | 1013.5 |
| 20260508164537 | 73 | 175 | 1.0 | 11.0 | 0.00 | 0.68 | 0.68 | 63 | 1013.6 |
| 20260508164021 | 73 | 157 | 1.0 | 5.0 | 0.00 | 0.68 | 0.68 | 66 | 1013.6 |
| 20260508163522 | 72 | 138 | 0.0 | 7.0 | 0.00 | 0.68 | 0.68 | 67 | 1013.7 |
| 20260508163039 | 71 | 165 | 1.0 | 7.0 | 0.00 | 0.68 | 0.68 | 67 | 1013.7 |
| 20260508162522 | 71 | 0 | 0.0 | 3.0 | 0.00 | 0.68 | 0.68 | 69 | 1014.0 |
| 20260508162021 | 70 | 165 | 0.0 | 6.0 | 0.00 | 0.68 | 0.68 | 69 | 1014.0 |
| 20260508161543 | 70 | 0 | 1.0 | 6.0 | 0.00 | 0.68 | 0.68 | 70 | 1014.1 |
| 20260508161022 | 69 | 0 | 0.0 | 6.0 | 0.00 | 0.68 | 0.68 | 71 | 1014.1 |
| 20260508160521 | 69 | 0 | 1.0 | 8.0 | 0.00 | 0.68 | 0.68 | 71 | 1014.1 |
| 20260508160040 | 69 | 0 | 2.0 | 8.0 | 0.00 | 0.68 | 0.68 | 72 | 1014.1 |
| 20260508155526 | 68 | 0 | 1.0 | 5.0 | 0.00 | 0.68 | 0.68 | 73 | 1014.1 |
| 20260508155020 | 67 | 168 | 0.0 | 3.0 | 0.00 | 0.68 | 0.68 | 75 | 1014.2 |
| 20260508154538 | 67 | 0 | 0.0 | 4.0 | 0.00 | 0.68 | 0.68 | 77 | 1014.3 |
| 20260508154021 | 67 | 209 | 1.0 | 6.0 | 0.00 | 0.68 | 0.68 | 75 | 1014.5 |
| 20260508153522 | 67 | 0 | 1.0 | 8.0 | 0.00 | 0.68 | 0.68 | 77 | 1014.5 |
| 20260508153039 | 67 | 167 | 1.0 | 8.0 | 0.00 | 0.68 | 0.68 | 78 | 1014.4 |
| 20260508152521 | 67 | 150 | 1.0 | 4.0 | 0.00 | 0.68 | 0.68 | 81 | 1014.3 |
| 20260508152025 | 67 | 0 | 0.0 | 5.0 | 0.00 | 0.68 | 0.68 | 80 | 1014.3 |
| 20260508151538 | 67 | 236 | 0.0 | 5.0 | 0.00 | 0.68 | 0.68 | 80 | 1014.5 |
| 20260508151020 | 66 | 153 | 0.0 | 4.0 | 0.00 | 0.68 | 0.68 | 81 | 1014.5 |
| 20260508150519 | 66 | 196 | 1.0 | 6.0 | 0.00 | 0.68 | 0.68 | 82 | 1014.4 |
| 20260508150037 | 66 | 0 | 0.0 | 6.0 | 0.00 | 0.68 | 0.68 | 83 | 1014.4 |
| 20260508145521 | 65 | 0 | 1.0 | 5.0 | 0.00 | 0.68 | 0.68 | 84 | 1014.5 |
| 20260508145023 | 65 | 168 | 1.0 | 5.0 | 0.00 | 0.68 | 0.68 | 84 | 1014.4 |
| 20260508144537 | 64 | 135 | 0.0 | 5.0 | 0.00 | 0.68 | 0.68 | 85 | 1014.6 |
| 20260508144022 | 64 | 132 | 1.0 | 5.0 | 0.00 | 0.68 | 0.68 | 86 | 1014.6 |
| 20260508143523 | 64 | 180 | 1.0 | 4.0 | 0.00 | 0.68 | 0.68 | 88 | 1014.5 |
| 20260508143034 | 64 | 175 | 0.0 | 4.0 | 0.00 | 0.68 | 0.68 | 89 | 1014.6 |
| 20260508142522 | 64 | 0 | 1.0 | 4.0 | 0.00 | 0.68 | 0.68 | 89 | 1014.7 |
| 20260508142022 | 64 | 0 | 0.0 | 3.0 | 0.00 | 0.68 | 0.68 | 89 | 1014.6 |
| 20260508141540 | 64 | 0 | 0.0 | 3.0 | 0.00 | 0.68 | 0.68 | 91 | 1014.6 |
| 20260508141023 | 62 | 135 | 0.0 | 2.0 | 0.00 | 0.68 | 0.68 | 89 | 1014.8 |
| 20260508140524 | 62 | 115 | 0.0 | 3.0 | 0.00 | 0.68 | 0.68 | 90 | 1014.8 |
| 20260508140041 | 62 | 86 | 0.0 | 3.0 | 0.02 | 0.68 | 0.68 | 90 | 1014.7 |
| 20260508135526 | 62 | 143 | 0.0 | 3.0 | 0.03 | 0.68 | 0.68 | 91 | 1014.6 |
| 20260508135021 | 62 | 136 | 0.0 | 3.0 | 0.03 | 0.68 | 0.68 | 91 | 1014.7 |
| 20260508134542 | 61 | 0 | 0.0 | 2.0 | 0.04 | 0.68 | 0.68 | 91 | 1014.9 |
| 20260508134022 | 61 | 140 | 0.0 | 2.0 | 0.04 | 0.68 | 0.68 | 92 | 1014.6 |
| 20260508133526 | 60 | 142 | 0.0 | 4.0 | 0.04 | 0.68 | 0.68 | 93 | 1014.6 |
| 20260508133039 | 60 | 150 | 0.0 | 4.0 | 0.04 | 0.68 | 0.68 | 93 | 1014.6 |
| 20260508132522 | 60 | 163 | 1.0 | 6.0 | 0.04 | 0.68 | 0.68 | 93 | 1014.7 |
| 20260508132021 | 60 | 0 | 0.0 | 6.0 | 0.04 | 0.68 | 0.68 | 92 | 1014.7 |
| 20260508131541 | 60 | 220 | 1.0 | 4.0 | 0.04 | 0.68 | 0.68 | 93 | 1014.5 |
| 20260508131022 | 60 | 165 | 1.0 | 4.0 | 0.04 | 0.68 | 0.68 | 93 | 1014.6 |
| 20260508130521 | 60 | 147 | 0.0 | 3.0 | 0.03 | 0.67 | 0.67 | 92 | 1014.7 |
| 20260508130036 | 60 | 150 | 1.0 | 3.0 | 0.02 | 0.66 | 0.66 | 93 | 1014.6 |
| 20260508125523 | 60 | 0 | 0.0 | 1.0 | 0.01 | 0.65 | 0.65 | 93 | 1015.2 |
| 20260508125023 | 60 | 0 | 0.0 | 2.0 | 0.01 | 0.65 | 0.65 | 93 | 1015.2 |
| 20260508124538 | 60 | 0 | 0.0 | 2.0 | 0.00 | 0.64 | 0.64 | 93 | 1014.9 |
| 20260508124022 | 60 | 138 | 0.0 | 1.0 | 0.00 | 0.64 | 0.64 | 93 | 1015.0 |
| 20260508123523 | 60 | 0 | 0.0 | 1.0 | 0.00 | 0.64 | 0.64 | 93 | 1015.2 |
| 20260508123038 | 60 | 0 | 0.0 | 1.0 | 0.00 | 0.64 | 0.64 | 92 | 1015.0 |
| 20260508122521 | 60 | 0 | 0.0 | 1.0 | 0.00 | 0.64 | 0.64 | 92 | 1014.9 |
| 20260508122022 | 60 | 0 | 0.0 | 1.0 | 0.00 | 0.64 | 0.64 | 93 | 1015.0 |
| 20260508121542 | 60 | 0 | 0.0 | 2.0 | 0.04 | 0.64 | 0.64 | 92 | 1015.1 |
| 20260508121023 | 60 | 0 | 0.0 | 4.0 | 0.12 | 0.64 | 0.64 | 92 | 1015.2 |
| 20260508120521 | 60 | 0 | 0.0 | 5.0 | 0.15 | 0.64 | 0.64 | 92 | 1014.8 |
| 20260508120042 | 60 | 0 | 2.0 | 5.0 | 0.18 | 0.64 | 0.64 | 92 | 1014.7 |
| 20260508115522 | 60 | 162 | 1.0 | 5.0 | 0.20 | 0.64 | 0.64 | 93 | 1014.8 |
| 20260508115021 | 60 | 136 | 0.0 | 5.0 | 0.21 | 0.64 | 0.64 | 92 | 1015.0 |
| 20260508114541 | 60 | 167 | 1.0 | 5.0 | 0.21 | 0.64 | 0.64 | 92 | 1014.7 |
| 20260508114022 | 60 | 171 | 1.0 | 4.0 | 0.21 | 0.64 | 0.64 | 92 | 1014.7 |
| 20260508113521 | 60 | 151 | 1.0 | 4.0 | 0.22 | 0.64 | 0.64 | 92 | 1014.8 |
| 20260508113041 | 60 | 153 | 1.0 | 4.0 | 0.22 | 0.64 | 0.64 | 92 | 1014.5 |
| 20260508112521 | 60 | 0 | 0.0 | 3.0 | 0.22 | 0.64 | 0.64 | 92 | 1014.8 |
| 20260508112023 | 60 | 196 | 1.0 | 3.0 | 0.24 | 0.64 | 0.64 | 92 | 1014.6 |
| 20260508111554 | 60 | 132 | 0.0 | 2.0 | 0.22 | 0.58 | 0.58 | 92 | 1014.5 |
| 20260508111021 | 60 | 171 | 0.0 | 2.0 | 0.14 | 0.51 | 0.51 | 92 | 1014.6 |
| 20260508110521 | 61 | 155 | 0.0 | 2.0 | 0.13 | 0.49 | 0.49 | 92 | 1014.7 |
| 20260508110038 | 60 | 0 | 0.0 | 2.0 | 0.10 | 0.46 | 0.46 | 92 | 1015.0 |
| 20260508105523 | 60 | 148 | 0.0 | 3.0 | 0.08 | 0.44 | 0.44 | 92 | 1015.3 |
| 20260508105020 | 60 | 323 | 1.0 | 3.0 | 0.07 | 0.43 | 0.43 | 92 | 1015.5 |
| 20260508104538 | 60 | 0 | 0.0 | 2.0 | 0.07 | 0.43 | 0.43 | 92 | 1015.0 |
| 20260508104022 | 60 | 0 | 0.0 | 4.0 | 0.07 | 0.43 | 0.43 | 92 | 1014.8 |
| 20260508103521 | 60 | 315 | 2.0 | 4.0 | 0.06 | 0.42 | 0.42 | 92 | 1015.4 |
| 20260508103038 | 60 | 338 | 1.0 | 4.0 | 0.06 | 0.42 | 0.42 | 92 | 1014.9 |
| 20260508102521 | 60 | 22 | 1.0 | 3.0 | 0.06 | 0.42 | 0.42 | 92 | 1014.4 |
| 20260508102022 | 60 | 0 | 1.0 | 3.0 | 0.03 | 0.39 | 0.39 | 92 | 1014.6 |
| 20260508101536 | 60 | 231 | 0.0 | 4.0 | 0.01 | 0.37 | 0.37 | 91 | 1014.7 |
| 20260508101020 | 60 | 0 | 0.0 | 4.0 | 0.01 | 0.37 | 0.37 | 91 | 1014.1 |
| 20260508100521 | 60 | 0 | 0.0 | 3.0 | 0.00 | 0.36 | 0.36 | 91 | 1013.9 |
| 20260508100035 | 60 | 0 | 0.0 | 4.0 | 0.00 | 0.36 | 0.36 | 91 | 1013.8 |
| 20260508095521 | 60 | 167 | 0.0 | 4.0 | 0.00 | 0.36 | 0.36 | 91 | 1013.8 |
| 20260508095022 | 60 | 0 | 0.0 | 1.0 | 0.00 | 0.36 | 0.36 | 91 | 1013.9 |
| 20260508094540 | 60 | 0 | 0.0 | 1.0 | 0.00 | 0.36 | 0.36 | 91 | 1014.0 |
| 20260508094022 | 60 | 0 | 0.0 | 1.0 | 0.00 | 0.36 | 0.36 | 91 | 1014.0 |
| 20260508093522 | 60 | 163 | 0.0 | 1.0 | 0.00 | 0.36 | 0.36 | 91 | 1014.1 |
| 20260508093038 | 60 | 0 | 0.0 | 1.0 | 0.00 | 0.36 | 0.36 | 91 | 1014.2 |
| 20260508092519 | 60 | 0 | 0.0 | 1.0 | 0.01 | 0.36 | 0.36 | 91 | 1014.2 |
| 20260508092019 | 60 | 0 | 0.0 | 3.0 | 0.01 | 0.36 | 0.36 | 91 | 1014.1 |
| 20260508091544 | 60 | 0 | 0.0 | 3.0 | 0.01 | 0.36 | 0.36 | 91 | 1014.1 |
| 20260508091018 | 60 | 0 | 1.0 | 2.0 | 0.01 | 0.36 | 0.36 | 91 | 1014.2 |
| 20260508090520 | 60 | 219 | 0.0 | 2.0 | 0.02 | 0.36 | 0.36 | 90 | 1014.3 |
| 20260508090042 | 60 | 298 | 0.0 | 1.0 | 0.12 | 0.36 | 0.36 | 90 | 1014.4 |
| 20260508085520 | 60 | 0 | 0.0 | 1.0 | 0.36 | 0.36 | 0.36 | 90 | 1014.5 |
| 20260508085019 | 59 | 0 | 0.0 | 3.0 | 0.36 | 0.36 | 0.36 | 90 | 1014.6 |
| 20260508084539 | 59 | 0 | 0.0 | 3.0 | 0.36 | 0.36 | 0.36 | 90 | 1014.8 |
| 20260508084024 | 59 | 307 | 1.0 | 4.0 | 0.36 | 0.36 | 0.36 | 89 | 1014.9 |
| 20260508083520 | 59 | 312 | 0.0 | 5.0 | 0.36 | 0.36 | 0.36 | 89 | 1014.4 |
| 20260508083048 | 59 | 148 | 2.0 | 5.0 | 0.36 | 0.36 | 0.36 | 89 | 1013.9 |
| 20260508082523 | 59 | 164 | 1.0 | 4.0 | 0.35 | 0.35 | 0.35 | 88 | 1014.5 |
| 20260508082019 | 59 | 166 | 1.0 | 3.0 | 0.35 | 0.35 | 0.35 | 87 | 1014.6 |
| 20260508081546 | 58 | 196 | 1.0 | 2.0 | 0.35 | 0.35 | 0.35 | 84 | 1015.1 |
| 20260508081022 | 59 | 140 | 0.0 | 6.0 | 0.35 | 0.35 | 0.35 | 84 | 1014.9 |
| 20260508080523 | 60 | 0 | 1.0 | 10.0 | 0.34 | 0.34 | 0.34 | 81 | 1015.2 |
| 20260508080038 | 62 | 159 | 4.0 | 10.0 | 0.22 | 0.22 | 0.22 | 80 | 1015.1 |
| 20260508075522 | 62 | 0 | 0.0 | 2.0 | 0.00 | 0.00 | 0.00 | 79 | 1016.0 |
| 20260508075021 | 62 | 0 | 0.0 | 2.0 | 0.00 | 0.00 | 0.00 | 77 | 1016.3 |
| 20260508074541 | 63 | 268 | 0.0 | 2.0 | 0.00 | 0.00 | 0.00 | 77 | 1015.9 |
| 20260508074021 | 63 | 0 | 0.0 | 2.0 | 0.00 | 0.00 | 0.00 | 76 | 1015.7 |
| 20260508073520 | 62 | 161 | 0.0 | 2.0 | 0.00 | 0.00 | 0.00 | 76 | 1015.5 |
| 20260508073038 | 62 | 0 | 0.0 | 2.0 | 0.00 | 0.00 | 0.00 | 76 | 1015.4 |
| 20260508072522 | 62 | 161 | 0.0 | 3.0 | 0.00 | 0.00 | 0.00 | 77 | 1015.3 |
| 20260508072019 | 62 | 167 | 1.0 | 3.0 | 0.00 | 0.00 | 0.00 | 77 | 1015.2 |
| 20260508071536 | 62 | 128 | 0.0 | 1.0 | 0.00 | 0.00 | 0.00 | 76 | 1015.3 |
| 20260508071021 | 62 | 0 | 0.0 | 1.0 | 0.00 | 0.00 | 0.00 | 77 | 1015.4 |
| 20260508070523 | 62 | 0 | 0.0 | 1.0 | 0.00 | 0.00 | 0.00 | 77 | 1015.4 |
| 20260508070036 | 61 | 0 | 0.0 | 1.0 | 0.00 | 0.00 | 0.00 | 77 | 1015.4 |
| 20260508065521 | 62 | 0 | 0.0 | 1.0 | 0.00 | 0.00 | 0.00 | 76 | 1015.3 |
| 20260508065020 | 62 | 0 | 0.0 | 0.0 | 0.00 | 0.00 | 0.00 | 75 | 1015.6 |
| 20260508064540 | 62 | 0 | 0.0 | 1.0 | 0.00 | 0.00 | 0.00 | 75 | 1015.7 |
| 20260508064024 | 62 | 0 | 0.0 | 2.0 | 0.00 | 0.00 | 0.00 | 75 | 1016.0 |
| 20260508063526 | 62 | 0 | 0.0 | 2.0 | 0.00 | 0.00 | 0.00 | 76 | 1016.1 |
| 20260508063040 | 62 | 238 | 0.0 | 2.0 | 0.00 | 0.00 | 0.00 | 76 | 1016.1 |
| 20260508062521 | 62 | 150 | 0.0 | 3.0 | 0.00 | 0.00 | 0.00 | 76 | 1016.0 |
| 20260508062021 | 62 | 0 | 0.0 | 3.0 | 0.00 | 0.00 | 0.00 | 75 | 1016.0 |
| 20260508061539 | 62 | 0 | 0.0 | 1.0 | 0.00 | 0.00 | 0.00 | 75 | 1016.0 |
| 20260508061019 | 62 | 0 | 0.0 | 1.0 | 0.00 | 0.00 | 0.00 | 75 | 1015.9 |
| 20260508060525 | 62 | 0 | 0.0 | 1.0 | 0.00 | 0.00 | 0.00 | 75 | 1015.8 |
| 20260508060038 | 62 | 170 | 0.0 | 1.0 | 0.00 | 0.00 | 0.00 | 75 | 1015.7 |
| 20260508055521 | 62 | 0 | 0.0 | 1.0 | 0.00 | 0.00 | 0.00 | 76 | 1015.9 |
| 20260508055021 | 62 | 0 | 0.0 | 1.0 | 0.00 | 0.00 | 0.00 | 75 | 1015.9 |
| 20260508054543 | 62 | 175 | 0.0 | 1.0 | 0.00 | 0.00 | 0.00 | 75 | 1015.8 |
| 20260508054020 | 62 | 175 | 0.0 | 1.0 | 0.00 | 0.00 | 0.00 | 74 | 1015.7 |
| 20260508053521 | 62 | 175 | 0.0 | 1.0 | 0.00 | 0.00 | 0.00 | 74 | 1015.9 |
| 20260508053036 | 62 | 0 | 0.0 | 0.0 | 0.00 | 0.00 | 0.00 | 74 | 1015.9 |
| 20260508052521 | 62 | 0 | 0.0 | 0.0 | 0.00 | 0.00 | 0.00 | 74 | 1016.1 |
| 20260508052021 | 63 | 0 | 0.0 | 0.0 | 0.00 | 0.00 | 0.00 | 74 | 1016.1 |
| 20260508051538 | 63 | 0 | 0.0 | 0.0 | 0.00 | 0.00 | 0.00 | 74 | 1016.0 |
| 20260508051021 | 63 | 0 | 0.0 | 0.0 | 0.00 | 0.00 | 0.00 | 73 | 1016.0 |
| 20260508050519 | 63 | 0 | 0.0 | 0.0 | 0.00 | 0.00 | 0.00 | 73 | 1016.0 |
| 20260508050039 | 63 | 0 | 0.0 | 1.0 | 0.00 | 0.00 | 0.00 | 73 | 1015.8 |
| 20260508045520 | 63 | 0 | 0.0 | 1.0 | 0.00 | 0.00 | 0.00 | 72 | 1016.0 |
| 20260508045020 | 63 | 0 | 0.0 | 1.0 | 0.00 | 0.00 | 0.00 | 73 | 1015.9 |
| 20260508044538 | 63 | 0 | 0.0 | 1.0 | 0.00 | 0.00 | 0.00 | 72 | 1015.9 |
| 20260508044021 | 63 | 0 | 0.0 | 1.0 | 0.00 | 0.00 | 0.00 | 72 | 1015.9 |
| 20260508043519 | 63 | 0 | 0.0 | 0.0 | 0.00 | 0.00 | 0.00 | 72 | 1015.8 |
| 20260508043043 | 63 | 0 | 0.0 | 0.0 | 0.00 | 0.00 | 0.00 | 71 | 1015.8 |
| 20260508042521 | 63 | 0 | 0.0 | 0.0 | 0.00 | 0.00 | 0.00 | 73 | 1015.8 |
| 20260508042021 | 64 | 0 | 0.0 | 1.0 | 0.00 | 0.00 | 0.00 | 73 | 1015.9 |
| 20260508041539 | 64 | 0 | 0.0 | 1.0 | 0.00 | 0.00 | 0.00 | 72 | 1016.0 |
| 20260508041022 | 64 | 0 | 0.0 | 0.0 | 0.00 | 0.00 | 0.00 | 71 | 1015.9 |
| 20260508040521 | 63 | 0 | 0.0 | 0.0 | 0.00 | 0.00 | 0.00 | 71 | 1015.8 |
| 20260508040037 | 63 | 0 | 0.0 | 0.0 | 0.00 | 0.00 | 0.00 | 71 | 1015.9 |
| 20260508035521 | 63 | 0 | 0.0 | 0.0 | 0.00 | 0.00 | 0.00 | 71 | 1015.9 |
| 20260508035023 | 63 | 0 | 0.0 | 0.0 | 0.00 | 0.00 | 0.00 | 70 | 1015.9 |
| 20260508034544 | 64 | 0 | 0.0 | 1.0 | 0.00 | 0.00 | 0.00 | 69 | 1015.9 |
| 20260508034020 | 64 | 0 | 0.0 | 1.0 | 0.00 | 0.00 | 0.00 | 69 | 1015.9 |
| 20260508033518 | 64 | 0 | 0.0 | 1.0 | 0.00 | 0.00 | 0.00 | 69 | 1015.8 |
| 20260508033039 | 64 | 0 | 0.0 | 1.0 | 0.00 | 0.00 | 0.00 | 68 | 1015.7 |